Rochester, NY

7:47 PM EST on November 13, 2019 (GMT -0500)
Greater Rochester International

Weather History for KROC - October, 2019

Change the Weather History Date:

Monday, October 14, 2019

  Actual Average Record
Temperature  
Mean Temperature 48 °F 51 °F  
Max Temperature 54 °F 60 °F 86 °F (1954)
Min Temperature 43 °F 42 °F 24 °F (1993)
Degree Days  
Heating Degree Days 16 14  
Month to date heating degree days 166  
Since 1 July heating degree days 347  
Cooling Degree Days 0 0  
Month to date cooling degree days 0  
Year to date cooling degree days 534  
Moisture  
Dew Point 37 °F    
Average Humidity 65    
Maximum Humidity 86    
Minimum Humidity 48    
Precipitation  
Precipitation 0.00 in 0.08 in 2.15 in (1955)
Month to date precipitation 1.28  
Year to date precipitation 27.26  
Snow  
Snow - 0.00 in T in (2009)
Month to date snowfall 0.0  
Since 1 July snowfall 0.0  
Since 1 September snowfall 0.0  
Snow Depth -    
Sea Level Pressure  
Sea Level Pressure 29.99 in    
Wind  
Wind Speed 7 mph ()    
Max Wind Speed 15 mph    
Max Gust Speed -    
Visibility 10.0 miles    
Events      
T = Trace of Precipitation, MM = Missing Value Source: Averaged Metar Reports

Daily Weather History Graph

Daily Weather History Graph

Search for Another Location

Airport or City:

Astronomy

Oct. 14, 2019 Rise Set
Actual Time 7:22 AM EDT 6:29 PM EDT
Civil Twilight 6:54 AM EDT 6:58 PM EDT
Nautical Twilight 6:21 AM EDT 7:31 PM EDT
Astronomical Twilight 5:48 AM EDT 8:04 PM EDT
Moon 7:18 PM EDT 7:52 AM EDT
Length of Visible Light 12h 04m
Length of Day
11h 07m
Waxing Gibbous, 99% of the Moon is Illuminated
Oct 14
Waxing Gibbous
Oct 21
Last Quarter
Oct 27
New
Nov 4
First Quarter
Nov 12
Full

Hourly Weather History & Observations

Time (EDT) Temp. Windchill Dew Point Humidity Pressure Visibility Wind Dir Wind Speed Gust Speed Precip Events Conditions
12:54 AM 53.1 °F - 37.0 °F 55% 29.88 in 10.0 mi SSW 8.1 mph - N/A   Mostly Cloudy
1:54 AM 52.0 °F - 37.9 °F 59% 29.89 in 10.0 mi WNW 15.0 mph - N/A   Overcast
2:54 AM 54.0 °F - 37.9 °F 55% 29.87 in 10.0 mi SW 6.9 mph - N/A   Overcast
3:54 AM 51.1 °F - 39.0 °F 63% 29.87 in 10.0 mi SW 4.6 mph - N/A   Overcast
4:54 AM 51.1 °F - 39.9 °F 66% 29.87 in 10.0 mi WSW 5.8 mph - N/A   Overcast
5:54 AM 51.1 °F - 39.9 °F 66% 29.88 in 10.0 mi WSW 5.8 mph - N/A   Overcast
6:54 AM 48.0 °F - 41.0 °F 77% 29.90 in 10.0 mi West 3.5 mph - N/A   Overcast
7:54 AM 48.0 °F - 42.1 °F 80% 29.93 in 10.0 mi West 5.8 mph - N/A   Overcast
8:54 AM 50.0 °F - 41.0 °F 71% 29.95 in 10.0 mi West 9.2 mph - N/A   Overcast
9:54 AM 51.1 °F - 37.0 °F 59% 29.96 in 10.0 mi WNW 10.4 mph - N/A   Mostly Cloudy
10:54 AM 50.0 °F - 39.0 °F 66% 29.99 in 10.0 mi West 8.1 mph - N/A   Overcast
11:54 AM 50.0 °F - 37.9 °F 63% 29.99 in 10.0 mi West 10.4 mph - N/A   Overcast
12:54 PM 51.1 °F - 35.1 °F 54% 30.00 in 10.0 mi West 12.7 mph - N/A   Mostly Cloudy
1:54 PM 51.1 °F - 32.0 °F 48% 30.01 in 10.0 mi West 12.7 mph - N/A   Overcast
2:54 PM 52.0 °F - 34.0 °F 50% 30.01 in 10.0 mi WSW 11.5 mph - N/A   Mostly Cloudy
3:54 PM 51.1 °F - 32.0 °F 48% 30.02 in 10.0 mi West 12.7 mph - N/A   Mostly Cloudy
4:54 PM 50.0 °F - 33.1 °F 52% 30.04 in 10.0 mi WSW 10.4 mph - N/A   Overcast
5:54 PM 50.0 °F - 34.0 °F 54% 30.05 in 10.0 mi WSW 6.9 mph - N/A   Mostly Cloudy
6:54 PM 48.0 °F - 36.0 °F 63% 30.07 in 10.0 mi WSW 4.6 mph - N/A   Mostly Cloudy
7:54 PM 46.9 °F - 37.0 °F 68% 30.09 in 10.0 mi SW 5.8 mph - N/A   Mostly Cloudy
8:54 PM 45.0 °F 42.6 °F 37.9 °F 76% 30.09 in 10.0 mi SW 4.6 mph - N/A   Overcast
9:54 PM 43.0 °F 39.5 °F 39.0 °F 86% 30.11 in 10.0 mi SW 5.8 mph - N/A   Mostly Cloudy
10:54 PM 44.1 °F 41.5 °F 39.9 °F 85% 30.11 in 10.0 mi WSW 4.6 mph - N/A   Overcast
11:54 PM 44.1 °F 40.8 °F 39.9 °F 85% 30.12 in 10.0 mi SW 5.8 mph - N/A   Mostly Cloudy